| time (UTC) | temp C | wind direction | speed KPH | gust KPH | rain 1hr cm | rain 24hr cm | rain mn cm | humidity % | barometer mb |
| 20260505102002 | 13 | 206 | 0.0 | 0.0 | 0.00 | 0.00 | 0.00 | 79 | 1011.1 |
| 20260505101514 | 13 | 206 | 0.0 | 1.6 | 0.00 | 0.00 | 0.00 | 79 | 1011.0 |
| 20260505101002 | 13 | 206 | 0.0 | 3.2 | 0.00 | 0.00 | 0.00 | 79 | 1010.9 |
| 20260505100506 | 13 | 210 | 0.0 | 3.2 | 0.00 | 0.00 | 0.00 | 80 | 1010.9 |
| 20260505100008 | 13 | 210 | 0.0 | 3.2 | 0.00 | 0.00 | 0.00 | 80 | 1010.9 |
| 20260505095502 | 12 | 200 | 0.0 | 0.0 | 0.00 | 0.00 | 0.00 | 82 | 1010.9 |
| 20260505095004 | 12 | 200 | 0.0 | 0.0 | 0.00 | 0.00 | 0.00 | 83 | 1011.0 |
| 20260505094513 | 12 | 200 | 0.0 | 0.0 | 0.00 | 0.00 | 0.00 | 84 | 1010.9 |
| 20260505094003 | 11 | 200 | 0.0 | 0.0 | 0.00 | 0.00 | 0.00 | 84 | 1011.0 |
| 20260505093503 | 11 | 200 | 0.0 | 0.0 | 0.00 | 0.00 | 0.00 | 84 | 1011.0 |
| 20260505093014 | 11 | 200 | 0.0 | 0.0 | 0.00 | 0.00 | 0.00 | 84 | 1011.0 |
| 20260505092508 | 11 | 200 | 0.0 | 0.0 | 0.00 | 0.00 | 0.00 | 82 | 1010.9 |
| 20260505092003 | 11 | 200 | 0.0 | 0.0 | 0.00 | 0.00 | 0.00 | 82 | 1010.9 |
| 20260505091515 | 12 | 200 | 0.0 | 0.0 | 0.00 | 0.00 | 0.00 | 81 | 1010.8 |
| 20260505091004 | 12 | 200 | 0.0 | 0.0 | 0.00 | 0.00 | 0.00 | 82 | 1010.8 |
| 20260505090506 | 12 | 200 | 0.0 | 0.0 | 0.00 | 0.00 | 0.00 | 81 | 1010.9 |
| 20260505090014 | 12 | 200 | 0.0 | 0.0 | 0.00 | 0.00 | 0.00 | 81 | 1010.9 |
| 20260505085509 | 12 | 200 | 0.0 | 0.0 | 0.00 | 0.00 | 0.00 | 81 | 1011.0 |
| 20260505085003 | 12 | 200 | 0.0 | 0.0 | 0.00 | 0.00 | 0.00 | 79 | 1011.0 |
| 20260505084532 | 13 | 200 | 0.0 | 0.0 | 0.00 | 0.00 | 0.00 | 79 | 1011.0 |
| 20260505084004 | 13 | 200 | 0.0 | 0.0 | 0.00 | 0.00 | 0.00 | 78 | 1011.1 |
| 20260505083504 | 13 | 200 | 0.0 | 0.0 | 0.00 | 0.00 | 0.00 | 78 | 1011.1 |
| 20260505083012 | 13 | 200 | 0.0 | 3.2 | 0.00 | 0.00 | 0.00 | 76 | 1011.1 |
| 20260505082506 | 13 | 200 | 0.0 | 3.2 | 0.00 | 0.00 | 0.00 | 75 | 1011.1 |
| 20260505082007 | 13 | 200 | 0.0 | 3.2 | 0.00 | 0.00 | 0.00 | 75 | 1011.0 |
| 20260505081518 | 13 | 191 | 0.0 | 3.2 | 0.00 | 0.00 | 0.00 | 76 | 1011.1 |
| 20260505081007 | 13 | 188 | 0.0 | 3.2 | 0.00 | 0.00 | 0.00 | 75 | 1011.0 |
| 20260505080506 | 13 | 189 | 0.0 | 3.2 | 0.00 | 0.00 | 0.00 | 75 | 1011.0 |
| 20260505080016 | 13 | 194 | 1.6 | 3.2 | 0.00 | 0.00 | 0.00 | 75 | 1011.0 |
| 20260505075504 | 13 | 182 | 1.6 | 6.4 | 0.00 | 0.00 | 0.00 | 75 | 1010.9 |
| 20260505075004 | 13 | 214 | 1.6 | 6.4 | 0.00 | 0.00 | 0.00 | 75 | 1010.9 |
| 20260505074516 | 13 | 207 | 0.0 | 3.2 | 0.00 | 0.00 | 0.00 | 75 | 1010.9 |
| 20260505074006 | 13 | 205 | 0.0 | 3.2 | 0.00 | 0.00 | 0.00 | 74 | 1010.9 |
| 20260505073503 | 13 | 201 | 1.6 | 6.4 | 0.00 | 0.00 | 0.00 | 74 | 1010.9 |
| 20260505073015 | 13 | 178 | 1.6 | 6.4 | 0.00 | 0.00 | 0.00 | 74 | 1010.9 |
| 20260505072503 | 13 | 207 | 1.6 | 6.4 | 0.00 | 0.00 | 0.00 | 74 | 1010.8 |
| 20260505072010 | 13 | 215 | 1.6 | 6.4 | 0.00 | 0.00 | 0.00 | 74 | 1010.8 |
| 20260505071519 | 13 | 196 | 1.6 | 4.8 | 0.00 | 0.00 | 0.00 | 74 | 1010.8 |
| 20260505071007 | 13 | 189 | 1.6 | 8.0 | 0.00 | 0.00 | 0.00 | 74 | 1010.8 |
| 20260505070504 | 13 | 202 | 1.6 | 8.0 | 0.00 | 0.00 | 0.00 | 73 | 1010.7 |
| 20260505070018 | 13 | 200 | 1.6 | 8.0 | 0.00 | 0.00 | 0.00 | 73 | 1010.6 |
| 20260505065509 | 14 | 205 | 3.2 | 8.0 | 0.00 | 0.00 | 0.00 | 73 | 1010.6 |
| 20260505065002 | 14 | 184 | 1.6 | 4.8 | 0.00 | 0.00 | 0.00 | 73 | 1010.6 |
| 20260505064506 | 14 | 185 | 1.6 | 6.4 | 0.00 | 0.00 | 0.00 | 72 | 1010.6 |
| 20260505064001 | 14 | 205 | 1.6 | 6.4 | 0.00 | 0.00 | 0.00 | 72 | 1010.7 |
| 20260505063502 | 14 | 204 | 1.6 | 9.7 | 0.00 | 0.00 | 0.00 | 72 | 1010.7 |
| 20260505063011 | 14 | 196 | 4.8 | 8.0 | 0.00 | 0.00 | 0.00 | 72 | 1010.7 |
| 20260505062503 | 14 | 202 | 0.0 | 8.0 | 0.00 | 0.00 | 0.00 | 71 | 1010.8 |
| 20260505062005 | 14 | 192 | 3.2 | 8.0 | 0.00 | 0.00 | 0.00 | 71 | 1010.8 |
| 20260505061520 | 14 | 201 | 3.2 | 11.3 | 0.00 | 0.00 | 0.00 | 71 | 1010.9 |
| 20260505061007 | 14 | 198 | 4.8 | 11.3 | 0.00 | 0.00 | 0.00 | 70 | 1010.9 |
| 20260505060509 | 14 | 194 | 1.6 | 11.3 | 0.00 | 0.00 | 0.00 | 70 | 1010.9 |
| 20260505060020 | 15 | 185 | 3.2 | 11.3 | 0.00 | 0.00 | 0.00 | 69 | 1010.8 |
| 20260505055509 | 14 | 205 | 3.2 | 9.7 | 0.00 | 0.00 | 0.00 | 69 | 1010.9 |
| 20260505055009 | 14 | 172 | 3.2 | 12.9 | 0.00 | 0.00 | 0.00 | 69 | 1010.9 |
| 20260505054519 | 14 | 209 | 1.6 | 12.9 | 0.00 | 0.00 | 0.00 | 69 | 1010.9 |
| 20260505054003 | 14 | 173 | 3.2 | 12.9 | 0.00 | 0.00 | 0.00 | 69 | 1010.9 |
| 20260505053502 | 14 | 213 | 1.6 | 6.4 | 0.00 | 0.00 | 0.00 | 69 | 1010.9 |
| 20260505053009 | 14 | 179 | 1.6 | 4.8 | 0.00 | 0.00 | 0.00 | 69 | 1010.9 |
| 20260505052506 | 14 | 202 | 0.0 | 8.0 | 0.00 | 0.00 | 0.00 | 68 | 1010.9 |
| 20260505052006 | 14 | 167 | 0.0 | 8.0 | 0.00 | 0.00 | 0.00 | 68 | 1010.9 |
| 20260505051517 | 15 | 197 | 1.6 | 8.0 | 0.00 | 0.00 | 0.00 | 68 | 1010.9 |
| 20260505051007 | 15 | 194 | 3.2 | 9.7 | 0.00 | 0.00 | 0.00 | 67 | 1010.9 |
| 20260505050508 | 15 | 171 | 3.2 | 9.7 | 0.00 | 0.00 | 0.00 | 67 | 1010.9 |
| 20260505041512 | 15 | 230 | 6.4 | 16.1 | 0.00 | 0.00 | 0.00 | 63 | 1011.1 |
| 20260505041003 | 15 | 156 | 4.8 | 16.1 | 0.00 | 0.00 | 0.00 | 63 | 1011.1 |
| 20260505040508 | 15 | 209 | 3.2 | 12.9 | 0.00 | 0.00 | 0.00 | 62 | 1011.2 |
| 20260505040016 | 15 | 202 | 4.8 | 12.9 | 0.00 | 0.00 | 0.00 | 62 | 1011.2 |
| 20260505035508 | 15 | 233 | 3.2 | 9.7 | 0.00 | 0.00 | 0.00 | 63 | 1011.1 |
| 20260505035008 | 15 | 204 | 3.2 | 9.7 | 0.00 | 0.00 | 0.00 | 63 | 1011.1 |
| 20260505034524 | 15 | 266 | 3.2 | 9.7 | 0.00 | 0.00 | 0.00 | 63 | 1011.0 |
| 20260505034012 | 15 | 200 | 3.2 | 8.0 | 0.00 | 0.00 | 0.00 | 63 | 1011.0 |
| 20260505033516 | 15 | 188 | 3.2 | 6.4 | 0.00 | 0.00 | 0.00 | 63 | 1011.1 |
| 20260505033024 | 15 | 232 | 3.2 | 9.7 | 0.00 | 0.00 | 0.00 | 64 | 1011.2 |
| 20260505032507 | 15 | 184 | 3.2 | 9.7 | 0.00 | 0.00 | 0.00 | 64 | 1011.2 |
| 20260505032008 | 15 | 194 | 1.6 | 6.4 | 0.00 | 0.00 | 0.00 | 64 | 1011.2 |
| 20260505031512 | 15 | 225 | 1.6 | 8.0 | 0.00 | 0.00 | 0.00 | 63 | 1011.2 |
| 20260505031003 | 15 | 208 | 3.2 | 8.0 | 0.00 | 0.00 | 0.00 | 63 | 1011.3 |
| 20260505030503 | 15 | 184 | 1.6 | 8.0 | 0.00 | 0.00 | 0.00 | 63 | 1011.3 |
| 20260505030014 | 15 | 192 | 1.6 | 12.9 | 0.00 | 0.00 | 0.00 | 63 | 1011.2 |
| 20260505025508 | 15 | 200 | 4.8 | 12.9 | 0.00 | 0.00 | 0.00 | 62 | 1011.3 |
| 20260505025007 | 15 | 197 | 3.2 | 11.3 | 0.00 | 0.00 | 0.00 | 62 | 1011.3 |
| 20260505024517 | 15 | 187 | 4.8 | 11.3 | 0.00 | 0.00 | 0.00 | 62 | 1011.4 |
| 20260505024008 | 15 | 187 | 3.2 | 11.3 | 0.00 | 0.00 | 0.00 | 62 | 1011.4 |
| 20260505023507 | 15 | 212 | 3.2 | 11.3 | 0.00 | 0.00 | 0.00 | 62 | 1011.3 |
| 20260505023024 | 15 | 194 | 3.2 | 8.0 | 0.00 | 0.00 | 0.00 | 61 | 1011.4 |
| 20260505022507 | 15 | 198 | 3.2 | 8.0 | 0.00 | 0.00 | 0.00 | 62 | 1011.4 |
| 20260505022010 | 15 | 182 | 1.6 | 6.4 | 0.00 | 0.00 | 0.00 | 61 | 1011.5 |
| 20260505021524 | 15 | 197 | 1.6 | 6.4 | 0.00 | 0.00 | 0.00 | 60 | 1011.4 |
| 20260505021006 | 15 | 179 | 1.6 | 6.4 | 0.00 | 0.00 | 0.00 | 60 | 1011.4 |
| 20260505020507 | 15 | 200 | 1.6 | 9.7 | 0.00 | 0.00 | 0.00 | 59 | 1011.5 |
| 20260505020015 | 16 | 207 | 3.2 | 11.3 | 0.00 | 0.00 | 0.00 | 58 | 1011.5 |
| 20260505015507 | 16 | 200 | 4.8 | 11.3 | 0.00 | 0.00 | 0.00 | 57 | 1011.5 |
| 20260505015004 | 16 | 188 | 1.6 | 11.3 | 0.00 | 0.00 | 0.00 | 57 | 1011.6 |
| 20260505014518 | 16 | 205 | 3.2 | 11.3 | 0.00 | 0.00 | 0.00 | 56 | 1011.6 |
| 20260505014006 | 16 | 209 | 3.2 | 11.3 | 0.00 | 0.00 | 0.00 | 55 | 1011.5 |
| 20260505013506 | 16 | 225 | 1.6 | 6.4 | 0.00 | 0.00 | 0.00 | 55 | 1011.4 |
| 20260505013020 | 16 | 156 | 1.6 | 9.7 | 0.00 | 0.00 | 0.00 | 54 | 1011.4 |
| 20260505012507 | 16 | 185 | 3.2 | 9.7 | 0.00 | 0.00 | 0.00 | 53 | 1011.4 |
| 20260505012011 | 16 | 198 | 3.2 | 8.0 | 0.00 | 0.00 | 0.00 | 52 | 1011.2 |
| 20260505011544 | 17 | 215 | 1.6 | 9.7 | 0.00 | 0.00 | 0.00 | 52 | 1011.2 |
| 20260505011008 | 17 | 207 | 3.2 | 9.7 | 0.00 | 0.00 | 0.00 | 51 | 1011.1 |
| 20260505010502 | 17 | 186 | 1.6 | 6.4 | 0.00 | 0.00 | 0.00 | 51 | 1011.1 |
| 20260505010015 | 17 | 186 | 1.6 | 9.7 | 0.00 | 0.00 | 0.00 | 49 | 1011.0 |
| 20260505005503 | 17 | 201 | 3.2 | 12.9 | 0.00 | 0.00 | 0.00 | 48 | 1010.9 |
| 20260505005004 | 17 | 213 | 3.2 | 12.9 | 0.00 | 0.00 | 0.00 | 48 | 1010.9 |
| 20260505004516 | 17 | 201 | 0.0 | 3.2 | 0.00 | 0.00 | 0.00 | 47 | 1010.9 |
| 20260505004006 | 17 | 217 | 0.0 | 3.2 | 0.00 | 0.00 | 0.00 | 48 | 1010.8 |
| 20260505003508 | 17 | 215 | 0.0 | 3.2 | 0.00 | 0.00 | 0.00 | 47 | 1010.8 |
| 20260505003020 | 17 | 215 | 0.0 | 3.2 | 0.00 | 0.00 | 0.00 | 46 | 1010.7 |
| 20260505002508 | 17 | 210 | 0.0 | 3.2 | 0.00 | 0.00 | 0.00 | 45 | 1010.7 |
| 20260505002011 | 18 | 211 | 0.0 | 3.2 | 0.00 | 0.00 | 0.00 | 43 | 1010.6 |
| 20260505001525 | 18 | 208 | 0.0 | 3.2 | 0.00 | 0.00 | 0.00 | 42 | 1010.6 |
| 20260505001012 | 18 | 193 | 0.0 | 3.2 | 0.00 | 0.00 | 0.00 | 42 | 1010.5 |
| 20260505000505 | 18 | 190 | 0.0 | 3.2 | 0.00 | 0.00 | 0.00 | 41 | 1010.5 |
| 20260505000006 | 19 | 198 | 0.0 | 6.4 | 0.00 | 0.00 | 0.00 | 40 | 1010.4 |
| 20260504235503 | 20 | 191 | 1.6 | 8.0 | 0.00 | 0.00 | 0.00 | 38 | 1010.4 |
| 20260504235007 | 20 | 189 | 1.6 | 8.0 | 0.00 | 0.00 | 0.00 | 38 | 1010.3 |
| 20260504234512 | 20 | 202 | 3.2 | 8.0 | 0.00 | 0.00 | 0.00 | 37 | 1010.2 |
| 20260504234002 | 20 | 261 | 1.6 | 8.0 | 0.00 | 0.00 | 0.00 | 37 | 1010.2 |
| 20260504233507 | 20 | 220 | 1.6 | 16.1 | 0.00 | 0.00 | 0.00 | 37 | 1010.1 |
| 20260504233016 | 20 | 186 | 6.4 | 14.5 | 0.00 | 0.00 | 0.00 | 37 | 1010.1 |
| 20260504232507 | 20 | 226 | 3.2 | 11.3 | 0.00 | 0.00 | 0.00 | 36 | 1010.1 |
| 20260504232010 | 20 | 200 | 1.6 | 12.9 | 0.00 | 0.00 | 0.00 | 38 | 1010.1 |
| 20260504231521 | 21 | 184 | 3.2 | 17.7 | 0.00 | 0.00 | 0.00 | 35 | 1010.1 |
| 20260504231008 | 21 | 157 | 6.4 | 17.7 | 0.00 | 0.00 | 0.00 | 35 | 1010.1 |
| 20260504230507 | 21 | 161 | 3.2 | 16.1 | 0.00 | 0.00 | 0.00 | 35 | 1010.1 |
| 20260504230025 | 21 | 108 | 4.8 | 16.1 | 0.00 | 0.00 | 0.00 | 35 | 1010.1 |
| 20260504225505 | 21 | 187 | 6.4 | 16.1 | 0.00 | 0.00 | 0.00 | 35 | 1010.0 |
| 20260504225002 | 21 | 277 | 3.2 | 12.9 | 0.00 | 0.00 | 0.00 | 36 | 1010.0 |
| 20260504224513 | 21 | 192 | 3.2 | 12.9 | 0.00 | 0.00 | 0.00 | 36 | 1010.0 |
| 20260504224003 | 21 | 270 | 3.2 | 9.7 | 0.00 | 0.00 | 0.00 | 34 | 1010.0 |
| 20260504223503 | 21 | 22 | 3.2 | 9.7 | 0.00 | 0.00 | 0.00 | 34 | 1009.9 |
| 20260504223018 | 21 | 265 | 3.2 | 9.7 | 0.00 | 0.00 | 0.00 | 35 | 1009.9 |
| 20260504222506 | 21 | 240 | 3.2 | 9.7 | 0.00 | 0.00 | 0.00 | 35 | 1009.9 |
| 20260504222007 | 21 | 196 | 3.2 | 16.1 | 0.00 | 0.00 | 0.00 | 35 | 1010.0 |
| 20260504221519 | 22 | 207 | 3.2 | 16.1 | 0.00 | 0.00 | 0.00 | 34 | 1010.0 |
| 20260504221012 | 22 | 186 | 6.4 | 16.1 | 0.00 | 0.00 | 0.00 | 33 | 1010.0 |
| 20260504220508 | 22 | 265 | 6.4 | 14.5 | 0.00 | 0.00 | 0.00 | 34 | 1010.0 |
| 20260504220024 | 22 | 161 | 4.8 | 12.9 | 0.00 | 0.00 | 0.00 | 35 | 1010.1 |
| 20260504215508 | 22 | 269 | 6.4 | 19.3 | 0.00 | 0.00 | 0.00 | 33 | 1010.2 |
| 20260504215009 | 22 | 246 | 6.4 | 19.3 | 0.00 | 0.00 | 0.00 | 32 | 1010.2 |
| 20260504214526 | 22 | 263 | 3.2 | 14.5 | 0.00 | 0.00 | 0.00 | 34 | 1010.2 |
| 20260504214002 | 22 | 149 | 3.2 | 12.9 | 0.00 | 0.00 | 0.00 | 34 | 1010.2 |
| 20260504213503 | 22 | 278 | 3.2 | 12.9 | 0.00 | 0.00 | 0.00 | 35 | 1010.2 |
| 20260504213012 | 22 | 248 | 6.4 | 12.9 | 0.00 | 0.00 | 0.00 | 37 | 1010.3 |
| 20260504212503 | 22 | 205 | 4.8 | 11.3 | 0.00 | 0.00 | 0.00 | 34 | 1010.2 |
| 20260504212007 | 22 | 200 | 3.2 | 17.7 | 0.00 | 0.00 | 0.00 | 34 | 1010.2 |
| 20260504211517 | 22 | 265 | 8.0 | 17.7 | 0.00 | 0.00 | 0.00 | 33 | 1010.3 |
| 20260504211007 | 22 | 257 | 4.8 | 17.7 | 0.00 | 0.00 | 0.00 | 33 | 1010.3 |
| 20260504210509 | 22 | 323 | 6.4 | 17.7 | 0.00 | 0.00 | 0.00 | 32 | 1010.2 |
| 20260504210021 | 22 | 290 | 3.2 | 14.5 | 0.00 | 0.00 | 0.00 | 36 | 1010.2 |
| 20260504205506 | 22 | 234 | 3.2 | 14.5 | 0.00 | 0.00 | 0.00 | 33 | 1010.2 |
| 20260504205011 | 22 | 226 | 6.4 | 14.5 | 0.00 | 0.00 | 0.00 | 31 | 1010.2 |
| 20260504204525 | 22 | 288 | 6.4 | 17.7 | 0.00 | 0.00 | 0.00 | 32 | 1010.3 |
| 20260504204010 | 22 | 167 | 4.8 | 17.7 | 0.00 | 0.00 | 0.00 | 32 | 1010.3 |
| 20260504203513 | 22 | 236 | 6.4 | 16.1 | 0.00 | 0.00 | 0.00 | 36 | 1010.2 |
| 20260504203012 | 22 | 153 | 4.8 | 16.1 | 0.00 | 0.00 | 0.00 | 32 | 1010.1 |
| 20260504202507 | 22 | 286 | 4.8 | 17.7 | 0.00 | 0.00 | 0.00 | 34 | 1010.2 |
| 20260504202006 | 22 | 256 | 8.0 | 17.7 | 0.00 | 0.00 | 0.00 | 32 | 1010.2 |
| 20260504201515 | 22 | 231 | 6.4 | 17.7 | 0.00 | 0.00 | 0.00 | 33 | 1010.2 |
| 20260504201007 | 22 | 279 | 4.8 | 14.5 | 0.00 | 0.00 | 0.00 | 33 | 1010.2 |
| 20260504200511 | 22 | 227 | 4.8 | 14.5 | 0.00 | 0.00 | 0.00 | 37 | 1010.3 |
| 20260504200018 | 22 | 109 | 4.8 | 14.5 | 0.00 | 0.00 | 0.00 | 33 | 1010.3 |
| 20260504195507 | 22 | 284 | 6.4 | 14.5 | 0.00 | 0.00 | 0.00 | 34 | 1010.4 |
| 20260504195007 | 22 | 251 | 6.4 | 14.5 | 0.00 | 0.00 | 0.00 | 33 | 1010.4 |
| 20260504194530 | 22 | 247 | 6.4 | 19.3 | 0.00 | 0.00 | 0.00 | 33 | 1010.6 |
| 20260504194009 | 22 | 232 | 6.4 | 19.3 | 0.00 | 0.00 | 0.00 | 34 | 1010.6 |
| 20260504193509 | 22 | 271 | 6.4 | 22.5 | 0.00 | 0.00 | 0.00 | 34 | 1010.6 |
| 20260504193026 | 22 | 217 | 8.0 | 22.5 | 0.00 | 0.00 | 0.00 | 34 | 1010.6 |
| 20260504192510 | 22 | 205 | 3.2 | 22.5 | 0.00 | 0.00 | 0.00 | 35 | 1010.8 |
| 20260504192009 | 22 | 201 | 9.7 | 19.3 | 0.00 | 0.00 | 0.00 | 32 | 1010.7 |
| 20260504191513 | 22 | 236 | 6.4 | 14.5 | 0.00 | 0.00 | 0.00 | 33 | 1010.9 |
| 20260504191007 | 22 | 273 | 4.8 | 14.5 | 0.00 | 0.00 | 0.00 | 36 | 1011.0 |
| 20260504190509 | 21 | 185 | 8.0 | 19.3 | 0.00 | 0.00 | 0.00 | 34 | 1011.1 |
| 20260504190028 | 21 | 197 | 8.0 | 19.3 | 0.00 | 0.00 | 0.00 | 36 | 1011.1 |
| 20260504185507 | 22 | 250 | 8.0 | 17.7 | 0.00 | 0.00 | 0.00 | 34 | 1011.2 |
| 20260504185008 | 21 | 259 | 6.4 | 16.1 | 0.00 | 0.00 | 0.00 | 33 | 1011.3 |
| 20260504184524 | 21 | 266 | 4.8 | 20.9 | 0.00 | 0.00 | 0.00 | 33 | 1011.4 |
| 20260504184011 | 21 | 286 | 8.0 | 24.1 | 0.00 | 0.00 | 0.00 | 36 | 1011.5 |
| 20260504183511 | 21 | 167 | 8.0 | 24.1 | 0.00 | 0.00 | 0.00 | 32 | 1011.4 |
| 20260504183026 | 21 | 149 | 8.0 | 22.5 | 0.00 | 0.00 | 0.00 | 33 | 1011.5 |
| 20260504182512 | 22 | 256 | 6.4 | 19.3 | 0.00 | 0.00 | 0.00 | 34 | 1011.6 |
| 20260504182012 | 21 | 281 | 4.8 | 19.3 | 0.00 | 0.00 | 0.00 | 35 | 1011.6 |
| 20260504181526 | 21 | 192 | 6.4 | 17.7 | 0.00 | 0.00 | 0.00 | 34 | 1011.7 |
| 20260504181012 | 21 | 267 | 4.8 | 20.9 | 0.00 | 0.00 | 0.00 | 36 | 1011.8 |
| 20260504180513 | 21 | 201 | 9.7 | 20.9 | 0.00 | 0.00 | 0.00 | 33 | 1011.8 |
| 20260504180017 | 21 | 230 | 4.8 | 19.3 | 0.00 | 0.00 | 0.00 | 33 | 1011.9 |
| 20260504175509 | 21 | 311 | 6.4 | 17.7 | 0.00 | 0.00 | 0.00 | 36 | 1012.0 |
| 20260504175012 | 20 | 275 | 4.8 | 17.7 | 0.00 | 0.00 | 0.00 | 37 | 1012.0 |
| 20260504174519 | 21 | 265 | 6.4 | 17.7 | 0.00 | 0.00 | 0.00 | 36 | 1012.1 |
| 20260504174008 | 21 | 274 | 8.0 | 14.5 | 0.00 | 0.00 | 0.00 | 35 | 1012.1 |
| 20260504173508 | 21 | 180 | 6.4 | 12.9 | 0.00 | 0.00 | 0.00 | 38 | 1012.1 |
| 20260504173024 | 20 | 219 | 6.4 | 17.7 | 0.00 | 0.00 | 0.00 | 40 | 1012.2 |
| 20260504172508 | 20 | 281 | 6.4 | 17.7 | 0.00 | 0.00 | 0.00 | 34 | 1012.3 |
| 20260504172010 | 21 | 228 | 6.4 | 17.7 | 0.00 | 0.00 | 0.00 | 35 | 1012.5 |
| 20260504171534 | 21 | 235 | 1.6 | 16.1 | 0.00 | 0.00 | 0.00 | 40 | 1012.4 |
| 20260504171012 | 20 | 233 | 4.8 | 16.1 | 0.00 | 0.00 | 0.00 | 35 | 1012.6 |
| 20260504170511 | 20 | 200 | 6.4 | 11.3 | 0.00 | 0.00 | 0.00 | 37 | 1012.7 |
| 20260504151005 | 18 | 250 | 6.4 | 19.3 | 0.00 | 0.00 | 0.00 | 46 | 1013.7 |
| 20260504150503 | 18 | 232 | 6.4 | 16.1 | 0.00 | 0.00 | 0.00 | 46 | 1013.7 |
| 20260504141003 | 16 | 197 | 8.0 | 14.5 | 0.00 | 0.00 | 0.00 | 47 | 1014.0 |
| 20260504140503 | 16 | 189 | 6.4 | 14.5 | 0.00 | 0.00 | 0.00 | 49 | 1014.0 |
| 20260504130502 | 13 | 159 | 6.4 | 16.1 | 0.00 | 0.00 | 0.00 | 59 | 1014.7 |
| 20260504110507 | 9 | 169 | 3.2 | 11.3 | 0.00 | 0.00 | 0.00 | 69 | 1015.2 |